Location: Georgenberg
(48.1500°N, 16.2500°E)
Time: 03:22:42
(UTC+01:00)

N. Korean satellite - Pass Details

Date: 06 December 2022
Orbit: 408 x 444 km, 97.3° (Epoch: 28 January)

Event Time Altitude Azimuth Distance (km) Brightness Sun altitude
Rises 16:44:42 0° 183° (S) 2,461 10.6 -7.0°
Reaches altitude 10° 16:46:48 10° 192° (SSW) 1,602 9.8 -7.3°
Maximum altitude 16:50:02 38° 262° (W) 720 8.1 -7.8°
Drops below altitude 10° 16:53:21 10° 333° (NNW) 1,635 9.3 -8.3°
Sets 16:55:32 0° 341° (NNW) 2,521 10.1 -8.7°
